Regional Weather Roundup
Issued by NWS

Home | Current Version | Previous Version | Graphics & Text | Print | Product List | Glossary On
Versions: 1 2 3 4 5 6 7 8 9 10 11 12 13 14 15 16 17 18 19 20 21 22 23 24 25 26 27 28 29 30 31 32 33 34 35 36 37 38 39 40 41 42 43 44 45 46 47 48 49 50
158
ASUS45 KSLC 300910
RWRUT

UTAH REGIONAL WEATHER ROUNDUP
NATIONAL WEATHER SERVICE SALT LAKE CITY UT
300 AM MDT THU MAR 30 2017

UTZ001>011-023>025-301000-

NORTHERN UTAH

CITY           SKY/WX    TMP DP  RH WIND       PRES   REMARKS
BRIGHAM CITY   CLOUDY    48  39  70 CALM      29.94F
HILL AFB       CLOUDY    48  36  61 S9        29.94F
LOGAN          LGT RAIN  47  42  83 NW3       29.94F
OGDEN          LGT RAIN  50  34  54 S10       29.94F
SALT LAKE CITY CLOUDY    51  35  54 S6        29.93F
TOOELE VALLEY  CLOUDY    50  36  57 SE6       29.93F
WENDOVER       MOCLDY    49  39  68 E5        29.91F
HEBER CITY     CLOUDY    41  32  70 SW3       29.98F
WEST JORDAN    CLOUDY    51  44  76 S15       29.94F

$$

UTZ011>015-024>027-301000-

CENTRAL/NORTHEAST UTAH

CITY           SKY/WX    TMP DP  RH WIND       PRES   REMARKS
PROVO AIRPORT  CLOUDY    45  38  76 S5        29.98F
MOAB/CANYONLAN PTCLDY    41  21  44 CALM      29.96F
DELTA          CLOUDY    39  34  81 CALM      29.98F
PRICE          CLOUDY    44  33  65 CALM      29.99F
RICHFIELD      CLEAR     34  32  93 SW3       30.04F
ROOSEVELT      CLOUDY    43  36  75 CALM      29.99F
VERNAL         CLOUDY    41  32  70 CALM      29.98F

$$

UTZ013>016-019>022-027-301000-

SOUTHERN UTAH

CITY           SKY/WX    TMP DP  RH WIND       PRES   REMARKS
BRYCE CANYON   PTCLDY    29  24  82 NW3       30.11F
CEDAR CITY     MOCLDY    37  31  78 W3        30.02F
MILFORD        MOCLDY    42  33  70 SW17      29.99F
ST GEORGE      MOSUNNY   52  30  43 SE7       29.98F
HANKSVILLE     PTCLDY    39  19  45 CALM      30.01S
KANAB          CLEAR     39  30  70 NE3       30.09F
BLANDING       CLEAR     35  21  56 NE8       30.11F WCI  29

$$

REGIONAL REPORTS     COLORADO/ARIZONA

CITY           SKY/WX    TMP DP  RH WIND       PRES   REMARKS
CRAIG, CO      CLOUDY    35  28  75 CALM      30.02F
GRAND JUNCTION CLOUDY    41  30  65 E5        30.00F
RIFLE, CO      CLOUDY    34  26  72 CALM      30.05R
MONTROSE, CO   CLOUDY    37  29  72 SE8       30.06F WCI  31
CORTEZ, CO     CLOUDY    30  25  81 NE6       30.06F WCI  24
COLORADO CITY    N/A     37  32  81 S5        30.07F WCI  34
PAGE, AZ       PTCLDY    52  25  35 CALM      30.00F
GRAND CANYON   CLEAR     28  24  85 CALM      30.13F
KINGMAN, AZ    CLEAR     43  16  33 S3        30.00F
FLAGSTAFF, AZ  CLEAR     29  20  69 CALM      30.14F

$$

REGIONAL REPORTS    NEVADA/IDAHO/WYOMING

CITY           SKY/WX    TMP DP  RH WIND       PRES   REMARKS
LAS VEGAS, NV  PTCLDY    61  26  26 SW5       29.92F
ELY, NY        CLEAR     36  31  82 SW5       30.02F WCI  32
ELKO, NV       MOCLDY    46  38  73 W5        29.93F
POCATELLO, ID  LGT RAIN  45  41  86 S15       29.89F
BURLEY, ID     LGT RAIN  46  43  89 W5        29.88F
FORT BRIDGER,  CLOUDY    41  32  71 W8        30.00F
EVANSTON, WY   CLOUDY    38  27  64 SW8       29.98F WCI  32
ROCK SPRINGS,  CLOUDY    39  29  67 SW13      29.97F WCI  31
KEMMERER, WY     N/A     36  30  80 SW6       29.98F WCI  31

$$




USA.gov is the U.S. government's official web portal to all federal, state and local government web resources and services.